AO-07 1 07530U 74089B 25259.52878332 -.00000031 00000-0 94737-4 0 9993 2 07530 101.9985 264.8598 0011932 294.4389 185.3186 12.53691542326222 UO-11 1 14781U 84021B 25259.48624322 .00001361 00000-0 14793-3 0 9998 2 14781 97.7661 223.9685 0008294 21.6838 338.4729 14.89671745216361 AO-27 1 22825U 93061C 25258.74927844 .00000078 00000-0 46998-4 0 9990 2 22825 98.7273 320.7514 0008444 177.8928 182.2291 14.30828757667752 FO-29 1 24278U 96046B 25259.60491293 -.00000025 00000-0 80251-5 0 9994 2 24278 98.5584 140.3991 0350912 86.0056 278.1113 13.53253632436162 NOAA-15 1 25338U 98030A 25259.60637017 .00000124 00000-0 68294-4 0 9994 2 25338 98.5320 282.3384 0011391 71.7038 288.5381 14.27016627422279 GO-32 1 25397U 98043D 25259.39041171 .00000087 00000-0 57973-4 0 9999 2 25397 98.9819 240.6212 0000425 336.9204 23.1955 14.24338884412352 ISS 1 25544U 98067A 25259.47902118 .00010460 00000-0 18877-3 0 9990 2 25544 51.6328 214.5860 0004354 346.2034 13.8835 15.50332788529524 NO-44 1 26931U 01043C 25259.56072600 .00000173 00000-0 95716-4 0 9991 2 26931 67.0494 231.9117 0007064 275.2166 84.8130 14.31778755251272 SO-50 1 27607U 02058C 25259.42768798 .00001644 00000-0 21806-3 0 9996 2 27607 64.5509 255.3491 0066400 313.2724 46.2852 14.81889063223877 CO-55 1 27844U 03031E 25259.53984461 .00000292 00000-0 14605-3 0 9997 2 27844 98.6791 266.5517 0008435 259.3858 100.6371 14.24068138152721 CO-57 1 27848U 03031J 25259.46450389 .00000258 00000-0 13321-3 0 9996 2 27848 98.6822 266.4077 0008343 279.7357 80.2879 14.23392703152439 RS-22 1 27939U 03042A 25259.61421392 .00001080 00000-0 17797-3 0 9993 2 27939 98.3368 71.5262 0012394 59.4191 14.6702 14.72587313175273 CO-58 1 28895U 05043F 25259.34285967 .00001584 00000-0 26428-3 0 9994 2 28895 98.2637 45.0231 0014280 358.6596 1.4569 14.71343683 61463 CO-65 1 32785U 08021C 25259.54615987 .00006546 00000-0 46022-3 0 9992 2 32785 97.7953 231.5583 0008116 231.0595 128.9909 15.05416953943963 CO-66 1 32791U 08021J 25259.39899909 .00015573 00000-0 70205-3 0 9990 2 32791 97.7370 241.8490 0004441 147.4420 212.7089 15.21120492945509 RS-30 1 32953U 08025A 25259.63255487 .00000002 00000-0 -59171-4 0 9990 2 32953 82.5070 165.5942 0018584 186.4421 173.6423 12.43168104785703 NOAA-19 1 33591U 09005A 25259.59451247 .00000081 00000-0 67037-4 0 9991 2 33591 98.9885 324.8149 0014811 85.0561 275.2302 14.13407182855832 SRMSAT 1 37841U 11058D 25259.35256709 .00000427 00000-0 88294-4 0 9996 2 37841 19.9717 276.8239 0011964 71.6787 316.1547 14.11464621719085 ZACUBE-1 1 39417U 13066B 25259.44174845 .00006227 00000-0 52748-3 0 9996 2 39417 97.7905 216.0314 0045883 81.9612 278.6812 14.97526757639707 Delfi-N3xt 1 39428U 13066N 25259.48640457 .00009374 00000-0 92371-3 0 9991 2 39428 97.8282 176.0750 0084195 35.6632 325.0170 14.89592316633796 GOMX-1 1 39430U 13066Q 25259.53672103 .00002101 00000-0 33047-3 0 9999 2 39430 97.6723 112.1017 0130378 235.3033 123.5834 14.68002679629746 LO-74 1 39440U 13066AA 25259.57951721 .00003454 00000-0 34633-3 0 9994 2 39440 97.8551 203.5283 0060065 211.8066 147.9520 14.90677359636184 AO-73 1 39444U 13066AE 25259.35017054 .00009373 00000-0 67516-3 0 9998 2 39444 97.7925 221.7698 0043304 55.4239 305.1060 15.03640356638423 DTUSAT-2 1 40030U 14033W 25259.36920416 .00008460 00000-0 53041-3 0 9996 2 40030 98.0653 236.1045 0011067 87.5577 272.6917 15.09558936611299 EO-80 1 40032U 14033Y 25259.38429951 .00008211 00000-0 51380-3 0 9996 2 40032 98.0539 235.6375 0009648 39.9890 320.2046 15.09652711611272 LILACSAT-2 1 40908U 15049K 25259.63765406 .00013666 00000-0 33079-3 0 9997 2 40908 97.5033 282.5093 0009788 152.9765 207.1992 15.41187440553475 IO-86 1 40931U 15052B 25151.18580175 .00001241 00000-0 78118-4 0 9996 2 40931 6.0006 24.0987 0012733 338.8432 21.1169 14.78805930523159 Horyu-4 1 41340U 16012D 25259.19288891 .00033943 00000-0 77869-3 0 9993 2 41340 30.9946 186.7462 0005987 355.4003 4.6588 15.41476440527997 Lapan A3 1 41603U 16040E 25259.63907157 .00004276 00000-0 14718-3 0 9999 2 41603 97.1423 260.4220 0008754 276.8435 83.1811 15.30533330512935 CAS-2T 1 41847U 16066G 25259.24179786 .00001199 00000-0 18024-3 0 9998 2 41847 98.4128 332.8262 0344238 239.8491 116.8177 14.43717387465252 CAS-4B 1 42759U 17034B 25259.89347255 .00331093 00000-0 13326-2 0 9994 2 42759 42.9998 83.0002 0024029 277.2571 82.5570 15.84316927458225 CAS-4A 1 42761U 17034D 25259.92582928 .00263071 32702-4 92314-3 0 9992 2 42761 43.0029 78.1961 0024511 283.5760 76.2384 15.87955477458269 TechnoSat 1 42829U 17042E 25259.44140821 .00003205 00000-0 24600-3 0 9991 2 42829 97.4014 63.5085 0016177 313.1800 46.8073 15.02356858445562 AO-91 1 43017U 17073E 25259.56031328 .00008775 00000-0 43631-3 0 9991 2 43017 97.5098 127.8539 0167701 188.2984 171.5465 15.06319281424108 S-Net D 1 43186U 18014G 25258.95785822 .00005752 00000-0 33150-3 0 9998 2 43186 97.5501 160.8579 0007105 240.9724 119.0795 15.12764377417241 S-Net B 1 43187U 18014H 25259.16300373 .00005768 00000-0 33252-3 0 9997 2 43187 97.5507 161.0374 0007878 234.9129 125.1364 15.12745918417276 S-Net A 1 43188U 18014J 25259.55320525 .00005975 00000-0 34407-3 0 9995 2 43188 97.5515 161.5871 0007806 234.1682 125.8824 15.12776270417330 S-Net C 1 43189U 18014K 25259.29793940 .00005579 00000-0 32171-3 0 9998 2 43189 97.5530 161.3653 0009368 227.3716 132.6725 15.12742813415847 Ten-Koh 1 43677U 18084G 25259.47240108 .00002383 00000-0 19170-3 0 9994 2 43677 98.0807 75.6502 0005903 290.8246 69.2344 15.01020270375072 PO-101 1 43678U 18084H 25259.54663229 .00001604 00000-0 13846-3 0 9995 2 43678 98.1085 79.5138 0008310 324.6364 35.4305 14.98761607375200 QO-100 1 43700U 18090A 25259.58884537 .00000125 00000-0 00000-0 0 9991 2 43700 0.0176 237.1463 0001420 339.2730 17.1689 1.00271990 24939 MinXSS-2 1 43758U 18099A 25259.07728095 .00022585 00000-0 80591-3 0 9993 2 43758 97.4925 325.5810 0011917 163.5786 196.5842 15.28819450372004 AO-95 1 43770U 18099N 25259.12921253 .00010987 00000-0 52795-3 0 9992 2 43770 97.4819 316.1823 0009431 221.6502 138.4015 15.18961439371505 SNUSat 2 1 43782U 18099AA 25259.59724078 .00007850 00000-0 41127-3 0 9994 2 43782 97.4505 312.5689 0012398 163.5569 196.6069 15.15998110371499 SnugLite 1 43784U 18099AC 25259.13755120 .00011266 00000-0 53616-3 0 9990 2 43784 97.4317 311.8989 0004289 151.0101 209.1372 15.19319026371596 ITASat 1 1 43786U 18099AE 25259.12320468 .00006751 00000-0 37334-3 0 9996 2 43786 97.4472 311.3119 0013058 219.8321 140.1953 15.14125074371368 EAGLET 1 1 43790U 18099AJ 25259.59147970 .00004060 00000-0 25446-3 0 9999 2 43790 97.4669 311.3762 0011291 201.8778 158.1971 15.09848729371002 ESEO 1 43792U 18099AL 25259.34788848 .00002296 00000-0 17497-3 0 9995 2 43792 97.4366 303.0532 0012233 183.1640 176.9511 15.02948385370658 JO-97 1 43803U 18099AX 25259.14771880 .00014602 00000-0 62209-3 0 9999 2 43803 97.4566 317.4304 0008232 151.4853 208.6836 15.23035069371762 Suomi 100 1 43804U 18099AY 25259.13387271 .00011999 00000-0 55537-3 0 9998 2 43804 97.4630 316.4086 0012766 158.4653 201.7122 15.20202656371669 ISAT 1 43879U 18111D 25259.21008514 .00027506 00000-0 83862-3 0 9997 2 43879 97.5869 175.9956 0007218 185.4323 174.6842 15.33900043368796 UWE-4 1 43880U 18111E 25259.21468325 .00020431 00000-0 72861-3 0 9996 2 43880 97.5815 173.7262 0009501 211.0714 148.9964 15.28887370368680 Sparrow 1 43881U 18111F 25259.23557863 .00030116 00000-0 87458-3 0 9994 2 43881 97.6036 179.3122 0003731 223.3606 136.7344 15.35437170368908 Prox-1 1 44339U 19036A 25259.33608837 .00014670 00000-0 17736-2 0 9997 2 44339 23.9953 132.1807 0006804 116.4538 243.6658 14.81971362332671 Taurus 1 1 44530U 19059C 25259.66871922 .00007439 00000-0 13338-2 0 9997 2 44530 98.6170 43.9011 0009596 90.9041 269.3261 14.67041647318460 Duchifat 3 1 44854U 19089C 25259.50668232 .00084967 00000-0 11251-2 0 9993 2 44854 36.9378 82.0170 0006954 7.4409 352.6453 15.57095831318384 TO-108 1 44881U 19093C 25259.63199924 .00000831 00000-0 10170-3 0 9997 2 44881 97.7851 333.1853 0012303 265.8205 94.1604 14.85791629310782 FloripaSat 1 1 44885U 19093G 25259.61273140 .00006173 00000-0 50705-3 0 9995 2 44885 97.8166 347.4690 0008376 232.6505 127.3955 14.99524615311584 RS-44 1 44909U 19096E 25259.45302638 .00000007 00000-0 -23854-4 0 9999 2 44909 82.5251 161.6063 0218516 64.4755 297.8766 12.79743466267333 UPMSat 2 1 46276U 20061E 25259.48600633 .00271529 29249-4 86802-3 0 9990 2 46276 97.2293 338.3619 0003593 220.7882 139.3123 15.91044109281053 SALSAT 1 46495U 20068K 25259.21038398 .00008514 00000-0 35276-3 0 9995 2 46495 97.8708 241.9403 0011337 168.7954 191.3537 15.24120569273542 TUBIN 1 48900U 21059X 25259.58337090 .00068550 00000-0 55374-3 0 9997 2 48900 97.6770 77.5704 0002982 218.0598 142.0454 15.70638711235529 LEDSAT 1 49069U 21073D 25259.50247461 .00235342 00000-0 11338-2 0 9990 2 49069 97.3767 346.3208 0001720 81.4283 278.7181 15.81989370226949 CUTE 1 49263U 21088D 25259.44928421 .00027942 00000-0 46993-3 0 9998 2 49263 97.4425 338.8467 0005652 217.3347 142.7514 15.51697239219735 TeikyoSat 4 1 49396U 21102B 25259.56421956 .00001991 00000-0 13298-3 0 9994 2 49396 97.4031 294.4037 0013336 147.7509 212.4538 15.08038140211464 Z-Sat 1 49399U 21102E 25259.57430034 .00004946 00000-0 26563-3 0 9997 2 49399 97.3727 298.1417 0019443 118.5245 241.7948 15.15203606211963 KOSEN 1 1 49402U 21102H 25259.36154594 .00008151 00000-0 36301-3 0 9996 2 49402 97.3622 302.1227 0017215 93.8193 266.5012 15.21571218212309 HO-113 1 50466U 21131B 25259.64756326 .00000489 00000-0 16626-3 0 9996 2 50466 98.5082 348.5107 0004113 183.6200 176.4960 14.40924525195714 SNUGLITE 2 1 52899U 22065F 25259.63917303 .00001135 00000-0 22852-3 0 9995 2 52899 98.1829 40.7377 0008072 155.1681 204.9910 14.63445271170970 UmKA 1 (RS40S) 1 57172U 23091G 25259.55846237 .00006743 00000-0 34933-3 0 9995 2 57172 97.5487 314.4397 0013654 358.7177 1.4018 15.16441959122477 CubeBel-2 (EU11S) 1 57175U 23091K 25259.57279888 .00011071 00000-0 49974-3 0 9993 2 57175 97.5484 316.2474 0011275 5.0775 355.0573 15.21107088122591 ENSO 1 58470U 23185J 25259.63252350 .00133904 00000-0 10787-2 0 9997 2 58470 97.3619 338.7503 0003338 94.3315 265.8329 15.70495022100496 SONATE-2 1 59112U 24043Q 25259.30732720 .00024364 00000-0 62826-3 0 9994 2 59112 97.5247 32.7542 0010976 120.6748 239.5580 15.39118705 85508 MO-122 1 60209U 24125G 25259.55265166 .00023819 00000-0 60089-3 0 9999 2 60209 97.2679 110.2370 0018381 137.2064 223.0617 15.39675002 67166 GRBBeta 1 60237U 24128C 25258.99885995 .00004649 00000-0 34314-3 0 9990 2 60237 61.9902 96.2014 0056771 78.8030 281.9435 15.03471272 64993 Curium One 1 60242U 24128H 25259.25397414 .00009385 00000-0 62185-3 0 9999 2 60242 61.9800 92.0144 0056591 75.6516 285.0850 15.06577402 65091 ROBUSTA-3A 1 60243U 24128J 25258.95718678 .00008153 00000-0 55066-3 0 9997 2 60243 61.9873 94.2303 0056076 73.0593 287.6636 15.06033393 65038 CatSat 1 60246U 24125J 25259.02516259 .00024811 00000-0 75080-3 0 9994 2 60246 97.2495 107.7603 0041442 102.7630 257.8249 15.33311206 65052 HYPERVIEW-1G (RS66S) 1 61772U 24199AP 25259.61195172 .00027708 00000-0 70061-3 0 9994 2 61772 97.3369 128.4499 0012021 186.5792 173.5298 15.39678634 92179 AO-123 1 61781U 24199AY 25259.60060355 .00008039 00000-0 28139-3 0 9992 2 61781 97.3392 126.0959 0014610 199.8782 160.1892 15.29667249 92016 ZIMSAT 2 1 61783U 24199BA 25259.61646455 .00056341 00000-0 10411-2 0 9998 2 61783 97.3324 130.0481 0011380 176.1225 184.0116 15.48818449 95433 HADES-R (SO-124) 1 62690U 25009CK 25258.75319976 .00064710 00000-0 17851-2 0 9990 2 62690 97.4018 339.6115 0002933 129.6914 230.4589 15.36859994 37180 HYDRA-T 1 62692U 25009CM 25257.47980639 .00040590 00000-0 11128-2 0 9991 2 62692 97.4012 338.4147 0002685 129.7510 230.3972 15.37176149 36993 JINJUSat 1B 1 63210U 25052A 25258.64680448 .00015509 00000-0 66539-3 0 9990 2 63210 97.4268 151.5883 0003934 14.0071 346.1274 15.22805538 28166 NUSHSAT 1 1 63211U 25052B 25259.14550899 .00017271 00000-0 72955-3 0 9990 2 63211 97.4253 152.1187 0004126 18.5309 341.6077 15.23310713 28249 TEVEL2-4 1 63213U 25052D 25258.98427656 .00017384 00000-0 74339-3 0 9990 2 63213 97.4170 151.6774 0004113 36.8989 323.2530 15.22891055 28217 TEVEL2-5 1 63214U 25052E 25259.44658447 .00016388 00000-0 70151-3 0 9998 2 63214 97.4175 152.1290 0004048 36.5359 323.6154 15.22869488 28285 TEVEL2-6 1 63215U 25052F 25259.45132293 .00016768 00000-0 71853-3 0 9998 2 63215 97.4172 152.1257 0004127 36.5707 323.5811 15.22828446 28289 TEVEL2-1 1 63217U 25052H 25258.95175708 .00016196 00000-0 69971-3 0 9995 2 63217 97.4145 151.5118 0004807 46.4120 313.7515 15.22555888 28205 TEVEL2-3 1 63218U 25052J 25259.60901436 .00014492 00000-0 62605-3 0 9998 2 63218 97.4149 152.1625 0004793 45.1029 315.0596 15.22584189 28309 TEVEL2-2 1 63219U 25052K 25258.62386250 .00015782 00000-0 68221-3 0 9994 2 63219 97.4148 151.1879 0004881 47.3955 312.7693 15.22542157 28153 TEVEL2-9 1 63237U 25052AD 25259.42726827 .00014859 00000-0 66655-3 0 9994 2 63237 97.4213 151.7973 0009250 43.0953 317.1005 15.21262607 28258 TEVEL2-7 1 63238U 25052AE 25259.17120606 .00015526 00000-0 69825-3 0 9994 2 63238 97.4216 151.5330 0009353 43.7178 316.4797 15.21165176 28216 TEVEL2-8 1 63239U 25052AF 25259.50414465 .00014125 00000-0 63602-3 0 9992 2 63239 97.4214 151.8497 0009322 42.9902 317.2060 15.21143904 28266 HYDRA-W 1 63490U 25052BL 25258.66934066 .00045509 00000-0 16224-2 0 9998 2 63490 97.4152 152.0673 0012170 40.9496 319.2656 15.28692889 28212 HADES-ICM (SO-125) 1 63492U 25052BN 25259.44179787 .00039158 00000-0 14292-2 0 9994 2 63492 97.4163 152.7298 0012499 41.2990 318.9193 15.27952270 28329